Flag for India Weather past 2 weeks in Kolkata, West Bengal, India

Now
81 °F

Passing clouds.


Feels Like: 88 °F
Forecast: 76 / 88 °F
Wind: 5 mph from North

Location: Calcutta / Dum Dum

Current Time: Jul 29, 2015 at 2:19:54 AM

Latest Report: Jul 29, 2015 at 1:50 AM


Visibility: 2 mi

Pressure: 29.45 "Hg

Humidity: 94%

Dew point: 79 °F

Location of KolkataLocation

Historic Weather in Kolkata — Graph

°F

Kolkata temperature yesterday

Maximum temperature yesterday: 86 °F (at 1:20 PM)
Minimum temperature yesterday: 79 °F (at 5:50 AM)
Average temperature yesterday: 82 °F

Past Weeks' High & Low Weather Summary

 TemperatureHumidityPressure
High97 °F (Jul 14, 12:20 PM)100% (Jul 15, 6:20 PM)29.68 "Hg (Jul 15, 6:20 PM)
Low77 °F (Jul 20, 1:20 AM)66% (Jul 26, 1:50 PM)29.36 "Hg (Jul 15, 3:20 PM)
Average83 °F89%29.50 "Hg
* Reported Jul 14 12:50 AM — Jul 29 12:50 AM, Kolkata, Weather by CustomWeather, © 2015

Note: Actual official high and low records may vary slightly from our data, if they occured in-between our weather recording intervals... More about our weather records

Advertising

Kolkata weather history for previous 24 hours

 ConditionsComfort  
Time TempWeatherWind HumidityBarometerVisibility
12:50 AM
Wed, Jul 29
81 °FPassing clouds.3 mph94%29.47 "Hg2 mi
12:20 AM81 °FPassing clouds.5 mph94%29.50 "Hg2 mi
11:50 PM
Tue, Jul 28
81 °FPassing clouds.3 mph94%29.50 "Hg2 mi
11:20 PM81 °FPassing clouds.5 mph94%29.50 "Hg2 mi
10:50 PM81 °FPassing clouds.5 mph94%29.50 "Hg2 mi
10:20 PM81 °FPassing clouds.6 mph94%29.50 "Hg2 mi
9:50 PM81 °FPassing clouds.6 mph94%29.50 "Hg2 mi
9:20 PM81 °FPassing clouds.6 mph94%29.50 "Hg2 mi
8:20 PM82 °FPartly cloudy.7 mph94%29.50 "Hg2 mi
7:50 PM82 °FPartly cloudy.9 mph94%29.50 "Hg2 mi
7:20 PM82 °FPartly cloudy.7 mph94%29.50 "Hg2 mi
6:50 PM82 °FPartly cloudy.6 mph94%29.47 "Hg2 mi
6:20 PM82 °FBroken clouds.6 mph94%29.47 "Hg2 mi
5:50 PM82 °FBroken clouds.7 mph94%29.47 "Hg2 mi
5:20 PM82 °FBroken clouds.6 mph94%29.45 "Hg2 mi
4:50 PM82 °FBroken clouds.No wind94%29.45 "Hg2 mi
4:20 PM82 °FBroken clouds.6 mph94%29.42 "Hg2 mi
3:50 PM82 °FLight rain. Broken clouds.5 mph94%29.42 "Hg2 mi
2:50 PM86 °FBroken clouds.6 mph84%29.45 "Hg2 mi
2:20 PM86 °FLight rain. Broken clouds.8 mph84%29.45 "Hg2 mi
1:20 PM86 °FBroken clouds.13 mph79%29.47 "Hg2 mi
12:50 PM82 °FBroken clouds.13 mph89%29.47 "Hg2 mi
12:20 PM82 °FBroken clouds.13 mph89%29.50 "Hg2 mi
11:50 AM82 °FBroken clouds.15 mph89%29.50 "Hg2 mi
11:20 AM82 °FBroken clouds.15 mph89%29.50 "Hg2 mi
10:50 AM82 °FLight rain. Scattered clouds.16 mph89%29.53 "Hg2 mi
10:20 AM84 °FScattered clouds.15 mph84%29.53 "Hg2 mi
9:50 AM84 °FBroken clouds.14 mph84%29.53 "Hg2 mi
9:20 AM84 °FBroken clouds.14 mph84%29.53 "Hg2 mi
8:50 AM84 °FBroken clouds.12 mph84%29.53 "Hg2 mi
8:20 AM82 °FBroken clouds.12 mph89%29.53 "Hg2 mi
7:50 AM81 °FBroken clouds.9 mph94%29.50 "Hg2 mi
7:20 AM81 °FLight rain. Broken clouds.9 mph89%29.50 "Hg2 mi
6:50 AM79 °FLight rain. Broken clouds.10 mph94%29.47 "Hg2 mi
6:20 AM79 °FLight rain. Broken clouds.9 mph94%29.47 "Hg2 mi
5:50 AM79 °FLight rain. Broken clouds.10 mph94%29.47 "Hg2 mi
5:20 AM81 °FPartly cloudy.10 mph89%29.47 "Hg2 mi
4:20 AM81 °FPassing clouds.8 mph89%29.45 "Hg2 mi
3:50 AM81 °FPassing clouds.8 mph89%29.45 "Hg2 mi
3:20 AM81 °FPassing clouds.9 mph89%29.45 "Hg2 mi
2:50 AM81 °FPassing clouds.10 mph89%29.45 "Hg2 mi
2:20 AM81 °FPassing clouds.10 mph89%29.45 "Hg2 mi
Weather by CustomWeather, © 2015

See weather overviewHow to use our weather pages